TimeCDT,TemperatureF,Dew PointF,Humidity,Sea Level PressureIn,VisibilityMPH,Wind Direction,Wind SpeedMPH,Gust SpeedMPH,PrecipitationIn,Events,Conditions,WindDirDegrees,DateUTC
12:53 AM,70.0,64.0,81,30.05,10.0,ESE,4.6,-,N/A,,Clear,120,2013-10-27 05:53:00
1:53 AM,69.1,64.0,84,30.03,10.0,SE,4.6,-,N/A,,Clear,130,2013-10-27 06:53:00
2:53 AM,69.1,64.9,87,30.03,10.0,Calm,Calm,-,N/A,,Clear,0,2013-10-27 07:53:00
3:53 AM,68.0,64.9,90,30.01,10.0,Calm,Calm,-,N/A,,Clear,0,2013-10-27 08:53:00
4:53 AM,69.1,64.9,87,30.01,10.0,Calm,Calm,-,N/A,,Partly Cloudy,0,2013-10-27 09:53:00
5:53 AM,68.0,64.9,90,30.02,10.0,Calm,Calm,-,N/A,,Clear,0,2013-10-27 10:53:00
6:53 AM,69.1,66.0,90,30.03,10.0,NNE,4.6,-,N/A,,Partly Cloudy,30,2013-10-27 11:53:00
7:53 AM,69.1,66.0,90,30.04,10.0,Calm,Calm,-,N/A,,Clear,0,2013-10-27 12:53:00
8:53 AM,73.0,68.0,84,30.06,10.0,East,3.5,-,N/A,,Clear,80,2013-10-27 13:53:00
9:53 AM,77.0,69.1,76,30.08,10.0,Calm,Calm,-,N/A,,Clear,0,2013-10-27 14:53:00
10:53 AM,80.1,69.1,69,30.08,10.0,South,5.8,-,N/A,,Scattered Clouds,170,2013-10-27 15:53:00
11:53 AM,82.9,66.0,56,30.07,10.0,SE,9.2,-,N/A,,Scattered Clouds,130,2013-10-27 16:53:00
12:53 PM,84.9,64.9,51,30.04,10.0,SSE,8.1,-,N/A,,Scattered Clouds,160,2013-10-27 17:53:00
1:53 PM,87.1,63.0,44,30.01,10.0,Variable,4.6,-,N/A,,Scattered Clouds,0,2013-10-27 18:53:00
2:53 PM,87.1,62.1,43,29.98,10.0,Calm,Calm,-,N/A,,Partly Cloudy,0,2013-10-27 19:53:00
3:53 PM,87.1,62.1,43,29.97,10.0,East,8.1,-,N/A,,Overcast,100,2013-10-27 20:53:00
4:53 PM,87.1,62.1,43,29.95,10.0,ESE,9.2,-,N/A,,Scattered Clouds,120,2013-10-27 21:53:00
5:53 PM,87.1,64.0,46,29.96,10.0,East,9.2,-,N/A,,Mostly Cloudy,100,2013-10-27 22:53:00
6:53 PM,84.0,64.9,53,29.96,10.0,East,10.4,-,N/A,,Mostly Cloudy,100,2013-10-27 23:53:00
7:53 PM,81.0,66.0,60,29.97,10.0,SE,15.0,-,N/A,,Scattered Clouds,130,2013-10-28 00:53:00
8:53 PM,79.0,66.0,64,29.99,10.0,SE,11.5,-,N/A,,Clear,140,2013-10-28 01:53:00
9:53 PM,78.1,66.9,68,30.01,10.0,SE,9.2,-,N/A,,Clear,140,2013-10-28 02:53:00
10:53 PM,75.9,66.9,74,30.01,10.0,SE,5.8,-,N/A,,Clear,130,2013-10-28 03:53:00
11:53 PM,73.0,66.0,79,30.01,10.0,SE,5.8,-,N/A,,Clear,130,2013-10-28 04:53:00